owner,sensor,date,latitude,longitude,vertical_datum,wind_speed,wind_to_direction,wind_speed_of_gust,qcFlag 
TABS,ioos:station:wmo:42043:1,2015-02-01T00:00:00Z,28.9818,-94.9186,4.0,7.432738392,116.3585674,9.19,'11111222,11111222,11111222' 
TABS,ioos:station:wmo:42043:1,2015-02-01T00:30:00Z,28.9818,-94.9186,4.0,7.137114263,119.3668519,9.12,'11111222,11111222,11111222' 
TABS,ioos:station:wmo:42043:1,2015-02-01T01:00:00Z,28.9818,-94.9186,4.0,6.532419154,121.1596526,8.58,'11111222,11111222,11111222' 
TABS,ioos:station:wmo:42043:1,2015-02-01T01:30:00Z,28.9818,-94.9186,4.0,5.870638807,125.1522686,7.91,'11111222,11111222,11111222' 
TABS,ioos:station:wmo:42043:1,2015-02-01T02:00:00Z,28.9818,-94.9186,4.0,5.186925872,127.9528211,6.82,'11111222,11111222,11111222' 
TABS,ioos:station:wmo:42043:1,2015-02-01T02:30:00Z,28.9818,-94.9186,4.0,3.945491097,131.6097435,4.76,'11111222,11111222,11111222' 
TABS,ioos:station:wmo:42043:1,2015-02-01T03:00:00Z,28.9818,-94.9186,4.0,4.778336531,129.8212515,6.09,'11111222,11111222,11111222' 
TABS,ioos:station:wmo:42043:1,2015-02-01T03:30:00Z,28.9818,-94.9186,4.0,4.41291287,134.0821948,5.4,'11111222,11111222,11111222' 
TABS,ioos:station:wmo:42043:1,2015-02-01T04:00:00Z,28.9818,-94.9186,4.0,3.696403658,131.9299285,4.69,'11111222,11111222,11111222' 
TABS,ioos:station:wmo:42043:1,2015-02-01T04:30:00Z,28.9818,-94.9186,4.0,3.368812847,128.1289009,4.47,'11111222,11111222,11111222' 
TABS,ioos:station:wmo:42043:1,2015-02-01T05:00:00Z,28.9818,-94.9186,4.0,5.168994099,135.2354538,6.49,'11111222,11111222,11111222' 
TABS,ioos:station:wmo:42043:1,2015-02-01T05:30:00Z,28.9818,-94.9186,4.0,4.934784696,144.152183,5.87,'11111222,11111222,11111222' 
TABS,ioos:station:wmo:42043:1,2015-02-01T06:00:00Z,28.9818,-94.9186,4.0,5.172939203,145.6343795,5.93,'11111222,11111222,11111222' 
TABS,ioos:station:wmo:42043:1,2015-02-01T06:30:00Z,28.9818,-94.9186,4.0,5.847392581,147.2886101,7.2,'11111222,11111222,11111222' 
TABS,ioos:station:wmo:42043:1,2015-02-01T07:00:00Z,28.9818,-94.9186,4.0,6.271778057,152.046013,7.67,'11111222,11111222,11111222' 
TABS,ioos:station:wmo:42043:1,2015-02-01T07:30:00Z,28.9818,-94.9186,4.0,5.539187666,147.0848277,6.84,'11111222,11111222,11111222' 
TABS,ioos:station:wmo:42043:1,2015-02-01T08:00:00Z,28.9818,-94.9186,4.0,2.745050091,172.2538635,3.44,'11111222,11111222,11111222' 
TABS,ioos:station:wmo:42043:1,2015-02-01T08:30:00Z,28.9818,-94.9186,4.0,3.059542449,148.908061,3.88,'11111222,11111222,11111222' 
TABS,ioos:station:wmo:42043:1,2015-02-01T09:00:00Z,28.9818,-94.9186,4.0,2.164116448,159.7230974,3.14,'11111222,11111222,11111222' 
TABS,ioos:station:wmo:42043:1,2015-02-01T09:30:00Z,28.9818,-94.9186,4.0,0.427200187,196.3140247,0.85,'11111222,11111222,11111222' 
TABS,ioos:station:wmo:42043:1,2015-02-01T10:00:00Z,28.9818,-94.9186,4.0,0.685930026,97.53984843,1.18,'11111222,11111222,11111222' 
TABS,ioos:station:wmo:42043:1,2015-02-01T10:30:00Z,28.9818,-94.9186,4.0,1.225887434,118.2378004,1.66,'11111222,11111222,11111222' 
TABS,ioos:station:wmo:42043:1,2015-02-01T11:00:00Z,28.9818,-94.9186,4.0,1.937446773,114.71354,2.37,'11111222,11111222,11111222' 
TABS,ioos:station:wmo:42043:1,2015-02-01T11:30:00Z,28.9818,-94.9186,4.0,1.863437683,102.3957988,2.33,'11111222,11111222,11111222' 
TABS,ioos:station:wmo:42043:1,2015-02-01T12:00:00Z,28.9818,-94.9186,4.0,2.131384527,84.07501095,2.68,'11111222,11111222,11111222' 
TABS,ioos:station:wmo:42043:1,2015-02-01T12:30:00Z,28.9818,-94.9186,4.0,1.73738309,95.2844087,2.24,'11111222,11111222,11111222' 
TABS,ioos:station:wmo:42043:1,2015-02-01T13:00:00Z,28.9818,-94.9186,4.0,2.3401923,126.135713,3.02,'11111222,11111222,11111222' 
TABS,ioos:station:wmo:42043:1,2015-02-01T13:30:00Z,28.9818,-94.9186,4.0,2.257542912,132.6666747,2.9,'11111222,11111222,11111222' 
TABS,ioos:station:wmo:42043:1,2015-02-01T14:00:00Z,28.9818,-94.9186,4.0,2.37892833,129.7133872,3.13,'11111222,11111222,11111222' 
TABS,ioos:station:wmo:42043:1,2015-02-01T14:30:00Z,28.9818,-94.9186,4.0,2.066712365,115.2014856,2.7,'11111222,11111222,11111222' 
TABS,ioos:station:wmo:42043:1,2015-02-01T15:00:00Z,28.9818,-94.9186,4.0,2.059732992,121.2980476,2.72,'11111222,11111222,11111222' 
TABS,ioos:station:wmo:42043:1,2015-02-01T15:30:00Z,28.9818,-94.9186,4.0,2.213255521,134.8172631,2.75,'11111222,11111222,11111222' 
TABS,ioos:station:wmo:42043:1,2015-02-01T16:00:00Z,28.9818,-94.9186,4.0,3.066626811,148.3315819,3.93,'11111222,11111222,11111222' 
TABS,ioos:station:wmo:42043:1,2015-02-01T16:30:00Z,28.9818,-94.9186,4.0,2.773950252,145.2790115,3.69,'11111222,11111222,11111222' 
TABS,ioos:station:wmo:42043:1,2015-02-01T17:00:00Z,28.9818,-94.9186,4.0,2.019925741,174.3178551,2.66,'11111222,11111222,11111222' 
TABS,ioos:station:wmo:42043:1,2015-02-01T17:30:00Z,28.9818,-94.9186,4.0,1.486606875,169.1438225,2.6,'11111222,11111222,11111222' 
TABS,ioos:station:wmo:42043:1,2015-02-01T18:00:00Z,28.9818,-94.9186,4.0,1.806017719,187.6367648,2.48,'11111222,11111222,11111222' 
TABS,ioos:station:wmo:42043:1,2015-02-01T18:30:00Z,28.9818,-94.9186,4.0,2.858898389,189.4625105,3.47,'11111222,11111222,11111222' 
TABS,ioos:station:wmo:42043:1,2015-02-01T19:00:00Z,28.9818,-94.9186,4.0,2.051194774,211.442944,2.65,'11111222,11111222,11111222' 
TABS,ioos:station:wmo:42043:1,2015-02-01T19:30:00Z,28.9818,-94.9186,4.0,2.183048327,194.8639673,2.84,'11111222,11111222,11111222' 
TABS,ioos:station:wmo:42043:1,2015-02-01T20:00:00Z,28.9818,-94.9186,4.0,2.773193105,203.1444895,3.39,'11111222,11111222,11111222' 
TABS,ioos:station:wmo:42043:1,2015-02-01T20:30:00Z,28.9818,-94.9186,4.0,2.679048338,207.3303713,3.23,'11111222,11111222,11111222' 
TABS,ioos:station:wmo:42043:1,2015-02-01T21:00:00Z,28.9818,-94.9186,4.0,2.579631757,200.8941544,3.22,'11111222,11111222,11111222' 
TABS,ioos:station:wmo:42043:1,2015-02-01T21:30:00Z,28.9818,-94.9186,4.0,3.555502777,197.0081176,4.36,'11111222,11111222,11111222' 
TABS,ioos:station:wmo:42043:1,2015-02-01T22:00:00Z,28.9818,-94.9186,4.0,3.322950496,214.455371,3.98,'11111222,11111222,11111222' 
TABS,ioos:station:wmo:42043:1,2015-02-01T22:30:00Z,28.9818,-94.9186,4.0,2.603536057,226.8677797,3.37,'11111222,11111222,11111222' 
TABS,ioos:station:wmo:42043:1,2015-02-01T23:00:00Z,28.9818,-94.9186,4.0,2.111492363,264.0194145,2.7,'11111222,11111222,11111222' 
TABS,ioos:station:wmo:42043:1,2015-02-01T23:30:00Z,28.9818,-94.9186,4.0,1.804217282,211.3995945,3.0,'11111222,11111222,11111222' 
TABS,ioos:station:wmo:42043:1,2015-02-02T00:00:00Z,28.9818,-94.9186,4.0,2.366030431,214.4961809,3.25,'11111222,11111222,11111222' 
TABS,ioos:station:wmo:42043:1,2015-02-02T00:30:00Z,28.9818,-94.9186,4.0,2.63865496,243.9205556,3.36,'11111222,11111222,11111222' 
TABS,ioos:station:wmo:42043:1,2015-02-02T01:00:00Z,28.9818,-94.9186,4.0,2.582111539,233.6627431,3.34,'11111222,11111222,11111222' 
TABS,ioos:station:wmo:42043:1,2015-02-02T01:30:00Z,28.9818,-94.9186,4.0,2.755358416,260.8111854,4.55,'11111222,11111222,11111222' 
TABS,ioos:station:wmo:42043:1,2015-02-02T02:00:00Z,28.9818,-94.9186,4.0,5.247951981,276.8947892,6.6,'11111222,11111222,11111222' 
TABS,ioos:station:wmo:42043:1,2015-02-02T02:30:00Z,28.9818,-94.9186,4.0,8.125103076,11.21288911,10.08,'11111222,11111222,11111222' 
TABS,ioos:station:wmo:42043:1,2015-02-02T03:00:00Z,28.9818,-94.9186,4.0,7.759806699,2.880624152,9.76,'11111222,11111222,11111222' 
TABS,ioos:station:wmo:42043:1,2015-02-02T03:30:00Z,28.9818,-94.9186,4.0,10.38010597,4.364616935,13.27,'11111222,11111222,11111222' 
TABS,ioos:station:wmo:42043:1,2015-02-02T04:00:00Z,28.9818,-94.9186,4.0,9.581424737,5.329554358,12.14,'11111222,11111222,11111222' 
TABS,ioos:station:wmo:42043:1,2015-02-02T04:30:00Z,28.9818,-94.9186,4.0,9.914116199,7.010097736,13.46,'11111222,11111222,11111222' 
TABS,ioos:station:wmo:42043:1,2015-02-02T05:00:00Z,28.9818,-94.9186,4.0,8.841832389,358.8332973,11.88,'11111222,11111222,11111222' 
TABS,ioos:station:wmo:42043:1,2015-02-02T05:30:00Z,28.9818,-94.9186,4.0,10.76617852,3.141236045,13.74,'11111222,11111222,11111222' 
TABS,ioos:station:wmo:42043:1,2015-02-02T06:00:00Z,28.9818,-94.9186,4.0,10.38783904,4.195429422,14.46,'11111222,11111222,11111222' 
TABS,ioos:station:wmo:42043:1,2015-02-02T06:30:00Z,28.9818,-94.9186,4.0,9.697015005,6.215992476,12.18,'11111222,11111222,11111222' 
TABS,ioos:station:wmo:42043:1,2015-02-02T07:00:00Z,28.9818,-94.9186,4.0,10.16543654,3.157726953,14.31,'11111222,11111222,11111222' 
TABS,ioos:station:wmo:42043:1,2015-02-02T07:30:00Z,28.9818,-94.9186,4.0,10.92567618,16.0459953,14.67,'11111222,11111222,11111222' 
TABS,ioos:station:wmo:42043:1,2015-02-02T08:00:00Z,28.9818,-94.9186,4.0,10.42451917,356.975454,13.69,'11111222,11111222,11111222' 
TABS,ioos:station:wmo:42043:1,2015-02-02T08:30:00Z,28.9818,-94.9186,4.0,10.21082759,359.2703056,13.69,'11111222,11144222,11111222' 
TABS,ioos:station:wmo:42043:1,2015-02-02T09:00:00Z,28.9818,-94.9186,4.0,11.60992679,357.630287,15.12,'11111222,11111222,11111222' 
TABS,ioos:station:wmo:42043:1,2015-02-02T09:30:00Z,28.9818,-94.9186,4.0,10.12415429,1.641211607,13.37,'11111222,11111222,11111222' 
TABS,ioos:station:wmo:42043:1,2015-02-02T10:00:00Z,28.9818,-94.9186,4.0,9.844277526,3.085986698,13.12,'11111222,11111222,11111222' 
TABS,ioos:station:wmo:42043:1,2015-02-02T10:30:00Z,28.9818,-94.9186,4.0,9.690185757,359.6450223,12.85,'11111222,11144222,11111222' 
TABS,ioos:station:wmo:42043:1,2015-02-02T11:00:00Z,28.9818,-94.9186,4.0,9.972141194,4.601191017,13.0,'11111222,11111222,11111222' 
TABS,ioos:station:wmo:42043:1,2015-02-02T11:30:00Z,28.9818,-94.9186,4.0,10.97964025,13.85881077,14.43,'11111222,11111222,11111222' 
TABS,ioos:station:wmo:42043:1,2015-02-02T12:00:00Z,28.9818,-94.9186,4.0,10.88572,16.81998843,14.4,'11111222,11111222,11111222' 
TABS,ioos:station:wmo:42043:1,2015-02-02T12:30:00Z,28.9818,-94.9186,4.0,10.27568489,6.48158894,13.77,'11111222,11111222,11111222' 
TABS,ioos:station:wmo:42043:1,2015-02-02T13:00:00Z,28.9818,-94.9186,4.0,9.943364622,8.268405678,13.25,'11111222,11111222,11111222' 
TABS,ioos:station:wmo:42043:1,2015-02-02T13:30:00Z,28.9818,-94.9186,4.0,9.86927049,9.977478829,13.5,'11111222,11111222,11111222' 
TABS,ioos:station:wmo:42043:1,2015-02-02T14:00:00Z,28.9818,-94.9186,4.0,9.060121412,16.87465479,11.99,'11111222,11111222,11111222' 
TABS,ioos:station:wmo:42043:1,2015-02-02T14:30:00Z,28.9818,-94.9186,4.0,10.07285957,19.24415601,12.95,'11111222,11111222,11111222' 
TABS,ioos:station:wmo:42043:1,2015-02-02T15:00:00Z,28.9818,-94.9186,4.0,9.721584233,17.72645725,12.76,'11111222,11111222,11111222' 
TABS,ioos:station:wmo:42043:1,2015-02-02T15:30:00Z,28.9818,-94.9186,4.0,9.506934311,22.70768448,12.16,'11111222,11111222,11111222' 
TABS,ioos:station:wmo:42043:1,2015-02-02T16:00:00Z,28.9818,-94.9186,4.0,9.181285313,28.35119819,12.8,'11111222,11111222,11111222' 
TABS,ioos:station:wmo:42043:1,2015-02-02T16:30:00Z,28.9818,-94.9186,4.0,8.34388998,20.41112132,11.22,'11111222,11111222,11111222' 
TABS,ioos:station:wmo:42043:1,2015-02-02T17:00:00Z,28.9818,-94.9186,4.0,7.853254103,26.9563145,11.79,'11111222,11111222,11111222' 
TABS,ioos:station:wmo:42043:1,2015-02-02T17:30:00Z,28.9818,-94.9186,4.0,7.83072155,26.46661368,10.63,'11111222,11111222,11111222' 
TABS,ioos:station:wmo:42043:1,2015-02-02T18:00:00Z,28.9818,-94.9186,4.0,6.788880615,26.97995717,9.11,'11111222,11111222,11111222' 
TABS,ioos:station:wmo:42043:1,2015-02-02T18:30:00Z,28.9818,-94.9186,4.0,6.770819744,22.39828346,9.22,'11111222,11111222,11111222' 
TABS,ioos:station:wmo:42043:1,2015-02-02T19:00:00Z,28.9818,-94.9186,4.0,6.94337814,16.99934161,9.85,'11111222,11111222,11111222' 
TABS,ioos:station:wmo:42043:1,2015-02-02T19:30:00Z,28.9818,-94.9186,4.0,6.269968102,13.37109024,8.76,'11111222,11111222,11111222' 
TABS,ioos:station:wmo:42043:1,2015-02-02T20:00:00Z,28.9818,-94.9186,4.0,6.061616946,23.94302796,8.03,'11111222,11111222,11111222' 
TABS,ioos:station:wmo:42043:1,2015-02-02T20:30:00Z,28.9818,-94.9186,4.0,5.251371249,23.92898835,7.01,'11111222,11111222,11111222' 
TABS,ioos:station:wmo:42043:1,2015-02-02T21:00:00Z,28.9818,-94.9186,4.0,6.053701347,32.24587665,8.33,'11111222,11111222,11111222' 
TABS,ioos:station:wmo:42043:1,2015-02-02T21:30:00Z,28.9818,-94.9186,4.0,5.36041976,32.11839743,7.7,'11111222,11111222,11111222' 
TABS,ioos:station:wmo:42043:1,2015-02-02T22:00:00Z,28.9818,-94.9186,4.0,5.34394985,31.22089781,7.91,'11111222,11111222,11111222' 
TABS,ioos:station:wmo:42043:1,2015-02-02T22:30:00Z,28.9818,-94.9186,4.0,4.535063395,25.88675527,6.43,'11111222,11111222,11111222' 
TABS,ioos:station:wmo:42043:1,2015-02-02T23:00:00Z,28.9818,-94.9186,4.0,4.224736678,2.713192641,6.25,'11111222,11111222,11111222' 
TABS,ioos:station:wmo:42043:1,2015-02-02T23:30:00Z,28.9818,-94.9186,4.0,3.801473399,8.470914365,6.05,'11111222,11111222,11111222' 
TABS,ioos:station:wmo:42043:1,2015-02-03T00:00:00Z,28.9818,-94.9186,4.0,4.356007346,14.35501496,6.18,'11111222,11111222,11111222' 
TABS,ioos:station:wmo:42043:1,2015-02-03T00:30:00Z,28.9818,-94.9186,4.0,4.47825859,15.27731505,6.57,'11111222,11111222,11111222' 
TABS,ioos:station:wmo:42043:1,2015-02-03T01:00:00Z,28.9818,-94.9186,4.0,3.836938884,19.80423957,5.79,'11111222,11111222,11111222' 
TABS,ioos:station:wmo:42043:1,2015-02-03T01:30:00Z,28.9818,-94.9186,4.0,4.25318704,31.14829769,5.96,'11111222,11111222,11111222' 
TABS,ioos:station:wmo:42043:1,2015-02-03T02:00:00Z,28.9818,-94.9186,4.0,4.863620051,18.21117632,6.61,'11111222,11111222,11111222' 
TABS,ioos:station:wmo:42043:1,2015-02-03T02:30:00Z,28.9818,-94.9186,4.0,4.754324347,20.95072826,7.01,'11111222,11111222,11111222' 
TABS,ioos:station:wmo:42043:1,2015-02-03T03:00:00Z,28.9818,-94.9186,4.0,5.324143124,28.24945898,6.88,'11111222,11111222,11111222' 
TABS,ioos:station:wmo:42043:1,2015-02-03T03:30:00Z,28.9818,-94.9186,4.0,5.58022401,28.58559893,7.67,'11111222,11111222,11111222' 
TABS,ioos:station:wmo:42043:1,2015-02-03T04:00:00Z,28.9818,-94.9186,4.0,5.368891878,41.67754369,7.41,'11111222,11111222,11111222' 
TABS,ioos:station:wmo:42043:1,2015-02-03T04:30:00Z,28.9818,-94.9186,4.0,5.721232385,44.07906714,7.56,'11111222,11111222,11111222' 
TABS,ioos:station:wmo:42043:1,2015-02-03T05:00:00Z,28.9818,-94.9186,4.0,6.114196595,49.51018554,8.66,'11111222,11111222,11111222' 
TABS,ioos:station:wmo:42043:1,2015-02-03T05:30:00Z,28.9818,-94.9186,4.0,6.144957282,44.53816435,7.77,'11111222,11111222,11111222' 
TABS,ioos:station:wmo:42043:1,2015-02-03T06:00:00Z,28.9818,-94.9186,4.0,5.68795218,50.99376324,8.13,'11111222,11111222,11111222' 
TABS,ioos:station:wmo:42043:1,2015-02-03T06:30:00Z,28.9818,-94.9186,4.0,6.158002923,53.18559321,8.12,'11111222,11111222,11111222' 
TABS,ioos:station:wmo:42043:1,2015-02-03T07:00:00Z,28.9818,-94.9186,4.0,5.90854466,58.35403413,8.67,'11111222,11111222,11111222' 
TABS,ioos:station:wmo:42043:1,2015-02-03T07:30:00Z,28.9818,-94.9186,4.0,5.150854298,61.34479863,6.58,'11111222,11111222,11111222' 
TABS,ioos:station:wmo:42043:1,2015-02-03T08:00:00Z,28.9818,-94.9186,4.0,5.001769687,61.84629841,6.38,'11111222,11111222,11111222' 
TABS,ioos:station:wmo:42043:1,2015-02-03T08:30:00Z,28.9818,-94.9186,4.0,5.34176937,61.85144506,7.12,'11111222,11111222,11111222' 
TABS,ioos:station:wmo:42043:1,2015-02-03T09:00:00Z,28.9818,-94.9186,4.0,5.009371218,72.21573223,7.51,'11111222,11111222,11111222' 
TABS,ioos:station:wmo:42043:1,2015-02-03T09:30:00Z,28.9818,-94.9186,4.0,4.803176033,79.32132669,6.7,'11111222,11111222,11111222' 
TABS,ioos:station:wmo:42043:1,2015-02-03T10:00:00Z,28.9818,-94.9186,4.0,4.332216523,78.81935967,5.93,'11111222,11111222,11111222' 
TABS,ioos:station:wmo:42043:1,2015-02-03T10:30:00Z,28.9818,-94.9186,4.0,4.38019406,75.9950936,6.31,'11111222,11111222,11111222' 
TABS,ioos:station:wmo:42043:1,2015-02-03T11:00:00Z,28.9818,-94.9186,4.0,4.074125673,79.82054278,5.85,'11111222,11111222,11111222' 
TABS,ioos:station:wmo:42043:1,2015-02-03T11:30:00Z,28.9818,-94.9186,4.0,4.261689806,91.61395608,6.49,'11111222,11111222,11111222' 
TABS,ioos:station:wmo:42043:1,2015-02-03T12:00:00Z,28.9818,-94.9186,4.0,4.97829288,96.11182318,6.47,'11111222,11111222,11111222' 
TABS,ioos:station:wmo:42043:1,2015-02-03T12:30:00Z,28.9818,-94.9186,4.0,5.107142058,86.96910932,6.49,'11111222,11111222,11111222' 
TABS,ioos:station:wmo:42043:1,2015-02-03T13:00:00Z,28.9818,-94.9186,4.0,5.707906797,74.86775017,7.52,'11111222,11111222,11111222' 
TABS,ioos:station:wmo:42043:1,2015-02-03T13:30:00Z,28.9818,-94.9186,4.0,6.299031672,81.50931232,8.08,'11111222,11111222,11111222' 
TABS,ioos:station:wmo:42043:1,2015-02-03T14:00:00Z,28.9818,-94.9186,4.0,6.626952542,99.29215644,8.28,'11111222,11111222,11111222' 
TABS,ioos:station:wmo:42043:1,2015-02-03T14:30:00Z,28.9818,-94.9186,4.0,6.912720159,94.64703746,9.1,'11111222,11111222,11111222' 
TABS,ioos:station:wmo:42043:1,2015-02-03T15:00:00Z,28.9818,-94.9186,4.0,6.413025807,95.81767982,7.86,'11111222,11111222,11111222' 
TABS,ioos:station:wmo:42043:1,2015-02-03T15:30:00Z,28.9818,-94.9186,4.0,7.140847289,89.11694289,8.68,'11111222,11111222,11111222' 
TABS,ioos:station:wmo:42043:1,2015-02-03T16:00:00Z,28.9818,-94.9186,4.0,6.578282451,92.87586788,8.15,'11111222,11111222,11111222' 
TABS,ioos:station:wmo:42043:1,2015-02-03T16:30:00Z,28.9818,-94.9186,4.0,6.105874221,85.86717262,7.63,'11111222,11111222,11111222' 
TABS,ioos:station:wmo:42043:1,2015-02-03T17:00:00Z,28.9818,-94.9186,4.0,6.208542502,81.47795984,8.01,'11111222,11111222,11111222' 
TABS,ioos:station:wmo:42043:1,2015-02-03T17:30:00Z,28.9818,-94.9186,4.0,5.954939126,72.20363177,7.81,'11111222,11111222,11111222' 
TABS,ioos:station:wmo:42043:1,2015-02-03T18:00:00Z,28.9818,-94.9186,4.0,6.158936597,82.06683932,8.07,'11111222,11111222,11111222' 
TABS,ioos:station:wmo:42043:1,2015-02-03T18:30:00Z,28.9818,-94.9186,4.0,5.610356495,82.31722169,7.11,'11111222,11111222,11111222' 
TABS,ioos:station:wmo:42043:1,2015-02-03T19:00:00Z,28.9818,-94.9186,4.0,5.155133364,66.56754173,6.45,'11111222,11111222,11111222' 
TABS,ioos:station:wmo:42043:1,2015-02-03T19:30:00Z,28.9818,-94.9186,4.0,4.673467663,69.58707185,6.48,'11111222,11111222,11111222' 
TABS,ioos:station:wmo:42043:1,2015-02-03T20:00:00Z,28.9818,-94.9186,4.0,4.491102315,64.68987142,6.23,'11111222,11111222,11111222' 
TABS,ioos:station:wmo:42043:1,2015-02-03T20:30:00Z,28.9818,-94.9186,4.0,4.638027598,53.32742326,6.39,'11111222,11111222,11111222' 
TABS,ioos:station:wmo:42043:1,2015-02-03T21:00:00Z,28.9818,-94.9186,4.0,5.96487217,37.84941085,8.17,'11111222,11111222,11111222' 
TABS,ioos:station:wmo:42043:1,2015-02-03T21:30:00Z,28.9818,-94.9186,4.0,6.450069767,46.13037262,8.41,'11111222,11111222,11111222' 
TABS,ioos:station:wmo:42043:1,2015-02-03T22:00:00Z,28.9818,-94.9186,4.0,6.848773613,49.91560508,8.71,'11111222,11111222,11111222' 
TABS,ioos:station:wmo:42043:1,2015-02-03T22:30:00Z,28.9818,-94.9186,4.0,6.513562773,48.92132425,8.54,'11111222,11111222,11111222' 
TABS,ioos:station:wmo:42043:1,2015-02-03T23:00:00Z,28.9818,-94.9186,4.0,7.643258467,64.00451036,9.44,'11111222,11111222,11111222' 
TABS,ioos:station:wmo:42043:1,2015-02-03T23:30:00Z,28.9818,-94.9186,4.0,8.472384552,72.27040711,10.06,'11111222,11111222,11111222' 
TABS,ioos:station:wmo:42043:1,2015-02-04T00:00:00Z,28.9818,-94.9186,4.0,8.278701589,75.09048738,10.02,'11111222,11111222,11111222' 
TABS,ioos:station:wmo:42043:1,2015-02-04T00:30:00Z,28.9818,-94.9186,4.0,8.0232724,75.56500731,10.1,'11111222,11111222,11111222' 
TABS,ioos:station:wmo:42043:1,2015-02-04T01:00:00Z,28.9818,-94.9186,4.0,7.882245873,72.80603803,9.72,'11111222,11111222,11111222' 
TABS,ioos:station:wmo:42043:1,2015-02-04T01:30:00Z,28.9818,-94.9186,4.0,7.360978196,68.3138524,9.55,'11111222,11111222,11111222' 
TABS,ioos:station:wmo:42043:1,2015-02-04T02:00:00Z,28.9818,-94.9186,4.0,6.671918764,66.31616702,8.5,'11111222,11111222,11111222' 
TABS,ioos:station:wmo:42043:1,2015-02-04T02:30:00Z,28.9818,-94.9186,4.0,7.649797383,74.45545833,9.51,'11111222,11111222,11111222' 
TABS,ioos:station:wmo:42043:1,2015-02-04T03:00:00Z,28.9818,-94.9186,4.0,7.140119047,86.94884053,8.94,'11111222,11111222,11111222' 
TABS,ioos:station:wmo:42043:1,2015-02-04T03:30:00Z,28.9818,-94.9186,4.0,6.813648068,83.51082384,8.34,'11111222,11111222,11111222' 
TABS,ioos:station:wmo:42043:1,2015-02-04T04:00:00Z,28.9818,-94.9186,4.0,6.236553535,78.43742971,8.12,'11111222,11111222,11111222' 
TABS,ioos:station:wmo:42043:1,2015-02-04T04:30:00Z,28.9818,-94.9186,4.0,6.609962178,77.77166116,8.37,'11111222,11111222,11111222' 
TABS,ioos:station:wmo:42043:1,2015-02-04T05:00:00Z,28.9818,-94.9186,4.0,6.425776218,71.3954938,8.37,'11111222,11111222,11111222' 
TABS,ioos:station:wmo:42043:1,2015-02-04T05:30:00Z,28.9818,-94.9186,4.0,6.849540131,65.04338509,9.14,'11111222,11111222,11111222' 
TABS,ioos:station:wmo:42043:1,2015-02-04T06:00:00Z,28.9818,-94.9186,4.0,7.565956648,61.67324468,9.49,'11111222,11111222,11111222' 
TABS,ioos:station:wmo:42043:1,2015-02-04T06:30:00Z,28.9818,-94.9186,4.0,7.406119092,53.45469222,9.52,'11111222,11111222,11111222' 
TABS,ioos:station:wmo:42043:1,2015-02-04T07:00:00Z,28.9818,-94.9186,4.0,6.57224467,48.20686228,8.65,'11111222,11111222,11111222' 
TABS,ioos:station:wmo:42043:1,2015-02-04T07:30:00Z,28.9818,-94.9186,4.0,6.875761776,49.77799476,8.75,'11111222,11111222,11111222' 
TABS,ioos:station:wmo:42043:1,2015-02-04T08:00:00Z,28.9818,-94.9186,4.0,7.428929936,49.0386655,9.16,'11111222,11111222,11111222' 
TABS,ioos:station:wmo:42043:1,2015-02-04T08:30:00Z,28.9818,-94.9186,4.0,7.838698872,55.49866578,9.88,'11111222,11111222,11111222' 
TABS,ioos:station:wmo:42043:1,2015-02-04T09:00:00Z,28.9818,-94.9186,4.0,8.265669967,62.47355191,10.38,'11111222,11111222,11111222' 
TABS,ioos:station:wmo:42043:1,2015-02-04T09:30:00Z,28.9818,-94.9186,4.0,8.260877677,69.7439389,10.56,'11111222,11111222,11111222' 
TABS,ioos:station:wmo:42043:1,2015-02-04T10:00:00Z,28.9818,-94.9186,4.0,8.116378503,75.00453502,10.04,'11111222,11111222,11111222' 
TABS,ioos:station:wmo:42043:1,2015-02-04T10:30:00Z,28.9818,-94.9186,4.0,8.178532876,70.72280259,9.77,'11111222,11111222,11111222' 
TABS,ioos:station:wmo:42043:1,2015-02-04T11:00:00Z,28.9818,-94.9186,4.0,8.474963127,80.14827478,10.49,'11111222,11111222,11111222' 
TABS,ioos:station:wmo:42043:1,2015-02-04T11:30:00Z,28.9818,-94.9186,4.0,8.204224522,85.59552778,10.82,'11111222,11111222,11111222' 
TABS,ioos:station:wmo:42043:1,2015-02-04T12:00:00Z,28.9818,-94.9186,4.0,9.180348577,90.49971674,11.32,'11111222,11111222,11111222' 
TABS,ioos:station:wmo:42043:1,2015-02-04T12:30:00Z,28.9818,-94.9186,4.0,7.079159555,80.89653635,9.04,'11111222,11111222,11111222' 
TABS,ioos:station:wmo:42043:1,2015-02-04T13:00:00Z,28.9818,-94.9186,4.0,9.260458952,87.27621738,12.64,'11111222,11111222,11111222' 
TABS,ioos:station:wmo:42043:1,2015-02-04T13:30:00Z,28.9818,-94.9186,4.0,9.002449667,88.66292323,11.21,'11111222,11111222,11111222' 
TABS,ioos:station:wmo:42043:1,2015-02-04T14:00:00Z,28.9818,-94.9186,4.0,6.363662467,77.38290901,9.19,'11111222,11111222,11111222' 
TABS,ioos:station:wmo:42043:1,2015-02-04T14:30:00Z,28.9818,-94.9186,4.0,5.799870688,60.3405392,7.18,'11111222,11111222,11111222' 
TABS,ioos:station:wmo:42043:1,2015-02-04T15:00:00Z,28.9818,-94.9186,4.0,5.698780571,51.33986123,7.27,'11111222,11111222,11111222' 
TABS,ioos:station:wmo:42043:1,2015-02-04T15:30:00Z,28.9818,-94.9186,4.0,6.147332755,39.25631545,7.66,'11111222,11111222,11111222' 
TABS,ioos:station:wmo:42043:1,2015-02-04T16:00:00Z,28.9818,-94.9186,4.0,6.222901253,42.19905828,7.9,'11111222,11111222,11111222' 
TABS,ioos:station:wmo:42043:1,2015-02-04T16:30:00Z,28.9818,-94.9186,4.0,6.523227729,41.70617311,8.64,'11111222,11111222,11111222' 
TABS,ioos:station:wmo:42043:1,2015-02-04T17:00:00Z,28.9818,-94.9186,4.0,6.656635787,53.92166425,8.38,'11111222,11111222,11111222' 
TABS,ioos:station:wmo:42043:1,2015-02-04T17:30:00Z,28.9818,-94.9186,4.0,7.818503693,70.4986153,9.49,'11111222,11111222,11111222' 
TABS,ioos:station:wmo:42043:1,2015-02-04T18:00:00Z,28.9818,-94.9186,4.0,5.940791193,59.33361792,7.5,'11111222,11111222,11111222' 
TABS,ioos:station:wmo:42043:1,2015-02-04T18:30:00Z,28.9818,-94.9186,4.0,5.303225434,54.36150989,6.56,'11111222,11111222,11111222' 